TimeEST,TemperatureF,Dew PointF,Humidity,Sea Level PressureIn,VisibilityMPH,Wind Direction,Wind SpeedMPH,Gust SpeedMPH,PrecipitationIn,Events,Conditions,WindDirDegrees,DateUTC
12:52 AM,24.1,19.0,81,29.83,10.0,Calm,Calm,-,N/A,,Overcast,0,2013-03-05 05:52:00
2:52 AM,25.0,19.9,81,29.87,10.0,Calm,Calm,-,N/A,,Overcast,0,2013-03-05 07:52:00
3:52 AM,25.0,19.9,81,29.89,10.0,Calm,Calm,-,N/A,,Overcast,0,2013-03-05 08:52:00
4:52 AM,24.1,19.9,84,29.92,10.0,Calm,Calm,-,0.00,,Overcast,0,2013-03-05 09:52:00
5:52 AM,24.1,21.0,88,29.95,10.0,Calm,Calm,-,0.00,,Overcast,0,2013-03-05 10:52:00
6:52 AM,25.0,21.0,85,29.97,10.0,Calm,Calm,-,N/A,,Overcast,0,2013-03-05 11:52:00
8:52 AM,27.0,21.9,81,30.01,10.0,Calm,Calm,-,N/A,,Overcast,0,2013-03-05 13:52:00
9:52 AM,30.0,21.9,72,30.00,10.0,Calm,Calm,-,N/A,,Overcast,0,2013-03-05 14:52:00
10:52 AM,33.1,23.0,66,30.00,10.0,North,3.5,-,N/A,,Overcast,350,2013-03-05 15:52:00
11:52 AM,34.0,24.1,67,30.01,10.0,West,3.5,-,N/A,,Overcast,260,2013-03-05 16:52:00
12:52 PM,37.0,25.0,62,30.01,10.0,NNW,4.6,-,N/A,,Overcast,340,2013-03-05 17:52:00
1:52 PM,37.0,28.0,70,30.02,8.0,North,4.6,-,0.00,Snow,Light Snow,350,2013-03-05 18:52:00
2:18 PM,37.4,28.4,70,29.98,1.8,North,6.9,-,0.00,Snow,Light Snow,360,2013-03-05 19:18:00
2:33 PM,37.4,28.4,70,29.99,2.5,North,5.8,-,0.00,Snow,Light Snow,360,2013-03-05 19:33:00
2:37 PM,37.4,28.4,70,29.99,3.0,NNE,5.8,-,0.00,Snow,Light Snow,20,2013-03-05 19:37:00
2:52 PM,37.0,30.0,76,30.03,7.0,NNE,6.9,-,0.00,Snow,Light Snow,20,2013-03-05 19:52:00
3:26 PM,37.4,28.4,70,29.99,10.0,North,8.1,-,0.00,,Overcast,350,2013-03-05 20:26:00
3:52 PM,39.0,28.9,67,30.04,10.0,NNW,3.5,-,0.00,,Overcast,340,2013-03-05 20:52:00
4:52 PM,39.0,28.9,67,30.05,10.0,North,6.9,-,N/A,,Overcast,360,2013-03-05 21:52:00
5:52 PM,37.0,30.0,76,30.07,10.0,NNE,5.8,-,N/A,,Overcast,20,2013-03-05 22:52:00
6:06 PM,37.4,30.2,75,30.02,10.0,NNE,4.6,-,N/A,,Overcast,20,2013-03-05 23:06:00
6:52 PM,36.0,30.9,82,30.09,8.0,NE,3.5,-,0.00,,Overcast,50,2013-03-05 23:52:00
7:25 PM,35.6,32.0,87,30.04,10.0,NNW,3.5,-,0.00,,Overcast,340,2013-03-06 00:25:00
7:52 PM,35.1,32.0,89,30.09,10.0,WNW,3.5,-,0.00,,Overcast,300,2013-03-06 00:52:00
7:59 PM,35.6,32.0,87,30.05,10.0,WNW,3.5,-,N/A,,Overcast,300,2013-03-06 00:59:00
8:25 PM,33.8,32.0,93,30.04,10.0,Calm,Calm,-,N/A,,Overcast,0,2013-03-06 01:25:00
8:52 PM,35.1,30.9,85,30.09,10.0,North,4.6,-,N/A,,Overcast,350,2013-03-06 01:52:00
9:52 PM,35.1,30.9,85,30.09,10.0,Calm,Calm,-,N/A,,Overcast,0,2013-03-06 02:52:00
10:52 PM,33.1,30.9,92,30.10,10.0,Calm,Calm,-,N/A,,Overcast,0,2013-03-06 03:52:00
11:02 PM,33.8,30.2,87,30.06,10.0,NNW,3.5,-,N/A,,Overcast,340,2013-03-06 04:02:00
11:18 PM,35.6,28.4,75,30.06,10.0,NE,3.5,-,N/A,,Overcast,40,2013-03-06 04:18:00
11:36 PM,35.6,28.4,75,30.07,4.0,East,5.8,-,0.00,Snow,Light Snow,80,2013-03-06 04:36:00
11:52 PM,35.1,30.0,82,30.12,2.0,East,5.8,-,0.00,Snow,Light Snow,80,2013-03-06 04:52:00